Overview Statistics Trail Chart Weather Telemetry Raw packets
 

This is the latest recevied weather packets stored in our database for station/object PP5CFL-13. If no packets are shown the sender has not sent any weather packets the latest 10 day(s).

<< 26 27 28 29 30 31 32 >>
Time Temp. Humidity Pressure Rain* Wind** Luminosity Snow
1788488260 21.11° C 87% 1015.5 hPa - - - -
1788487960 21.11° C 87% 1015.4 hPa - - - -
1788487082 21.11° C 86% 1015.3 hPa - - - -
1788486760 21.11° C 86% 1015.3 hPa - - - -
1788486160 21.11° C 86% 1015.3 hPa - - - -
1788485860 21.11° C 86% 1015.6 hPa - - - -
1788485560 21.67° C 86% 1015.6 hPa - - - -
1788485260 21.67° C 85% 1015.7 hPa - - - -
1788484736 21.67° C 85% 1015.7 hPa - - - -
1788484360 21.67° C 84% 1015.9 hPa - - - -
1788484060 21.67° C 84% 1015.8 hPa - - - -
1788483468 21.67° C 84% 1015.9 hPa - - - -
1788483155 21.67° C 84% 1015.9 hPa - - - -
1788481660 22.78° C 83% 1015.9 hPa - - - -
1788481360 22.78° C 83% 1016.1 hPa - - - -
1788481060 22.78° C 82% 1016 hPa - - - -
1788480460 23.33° C 80% 1016.1 hPa - - - -
1788480160 23.33° C 81% 1016.1 hPa - - - -
1788479863 22.78° C 83% 1016.1 hPa - - - -
1788479560 22.22° C 84% 1016.1 hPa - - - -
1788479260 22.22° C 85% 1016.2 hPa - - - -
1788478965 22.78° C 85% 1016.2 hPa - - - -
1788478660 22.22° C 86% 1016.1 hPa - - - -
1788478360 22.22° C 87% 1016.1 hPa - - - -
1788478063 21.67° C 88% 1016.2 hPa - - - -

* Rain since midnight (hover to see other rain measurements)
** Current wind speed in m/s (hover to see current wind gust speed)